Regional Weather Roundup
Issued by NWS Upton, NY

Current Version | Previous Version | Text Only | Print | Product List | Glossary On
Versions: 1 2 3 4 5 6 7 8 9 10 11 12 13 14 15 16 17 18 19 20 21 22 23 24 25 26 27 28 29 30 31 32 33 34 35 36 37 38 39 40 41 42 43 44 45 46 47 48 49 50
000 ASUS41 KOKX 291604 RWROKX REGIONAL WEATHER ROUNDUP NATIONAL WEATHER SERVICE NEW YORK NY 1200 PM EDT SAT AUG 29 2015 NOTE: "FAIR" INDICATES FEW OR NO CLOUDS BELOW 12,000 FEET WITH NO SIGNIFICANT WEATHER AND/OR OBSTRUCTIONS TO VISIBILITY. NYZ071-072-176-178-NJZ106-104-291700- NEW YORK CITY METRO AREA CITY SKY/WX TMP DP RH WIND PRES REMARKS CENTRAL PARK PTSUNNY 80 54 40 VRB5 30.23F LAGUARDIA APRT PTSUNNY 81 53 37 W7 30.20S KENNEDY INTL PTSUNNY 81 56 42 SW12 30.22S NEWARK/LIBERTY PTSUNNY 81 54 39 SW5 30.20F BRNX BOT. GARD N/A 79 54 41 NW5 30.21F TETERBORO MOSUNNY 81 52 36 VRB6G20 30.19F $$ NYZ177-179-078>081-291700- LONG ISLAND NEW YORK CITY SKY/WX TMP DP RH WIND PRES REMARKS FARMINGDALE PTSUNNY 81 54 39 VRB6 30.21F ISLIP PTSUNNY 82 54 37 VRB5 30.19F SHIRLEY MOSUNNY 82 56 40 SW7 30.21F WESTHAMPTON PTSUNNY 80 55 42 VRB5G17 30.22F MONTAUK POINT N/A 79 62 56 VRB7 30.22S $$ NYZ052-065-067-291700- HUDSON VALLEY CITY SKY/WX TMP DP RH WIND PRES REMARKS WHITE PLAINS MOSUNNY 79 54 41 VRB7 30.21F NEWBURGH MOSUNNY 75 61 60 W7 30.23S MONTGOMERY SUNNY 77 60 55 S5 30.21F POUGHKEEPSIE SUNNY 78 56 46 VRB3 30.20F ALBANY PTSUNNY 74 56 53 VRB3 30.19F $$ NJZ001-105-106-008-010-013-015-019>022-104-291700- NEW JERSEY CITY SKY/WX TMP DP RH WIND PRES REMARKS NEWARK/LIBERTY PTSUNNY 81 54 39 SW5 30.20F TETERBORO MOSUNNY 81 52 36 VRB6G20 30.19F CALDWELL MOSUNNY 81 57 43 VRB6 30.20F MORRISTOWN PTSUNNY 82 59 44 NW8 30.21F SOMERVILLE SUNNY 82 57 42 W8 30.19F SUSSEX SUNNY 78 60 53 SW7 30.21 ANDOVER N/A 77 61 57 W9 30.22F TRENTON SUNNY 79 60 52 S8 30.21F MILLVILLE SUNNY 81 60 48 VRB5 30.22F ATLANTIC CITY MOSUNNY 83 56 39 SW9 30.22F WRIGHTSTOWN SUNNY 81 61 51 S7 30.19F TOMS RIVER MOSUNNY 81 55 41 W5 30.22F BELMAR SUNNY 82 55 39 NW7 30.21F $$ PAZ047>061-062-071-291700- EASTERN PENNSYLVANIA CITY SKY/WX TMP DP RH WIND PRES REMARKS PHILADELPHIA MOSUNNY 82 57 42 SW8 30.21F ALLENTOWN SUNNY 80 60 50 VRB7 30.21F SCRANTON SUNNY 79 60 52 W7 30.20F $$ CTZ002-004>006-009-010-012-RIZ004-006-007-MAZ004-011-015-291700- SOUTHERN NEW ENGLAND IN CT CITY SKY/WX TMP DP RH WIND PRES REMARKS BRADLEY INTL PTSUNNY 77 56 48 W6 30.19F HARTFORD SUNNY 80 55 42 W8 30.19F DANBURY SUNNY 76 55 48 SW6 30.23S WTRBRY/OXFORD NOT AVBL BRIDGEPORT SUNNY 77 58 51 S8 30.21F MERIDEN SUNNY 80 53 39 W7 30.20F NEW HAVEN MOSUNNY 77 57 50 S8 30.21F CHESTER NOT AVBL GROTON SUNNY 75 63 66 SW12 30.19F WILLIMANTIC PTSUNNY 77 55 46 W7 30.20F IN RI CITY SKY/WX TMP DP RH WIND PRES REMARKS PROVIDENCE PTSUNNY 77 54 44 W12 30.19F BLOCK ISLAND SUNNY 77 61 57 SW10 30.21S WESTERLY SUNNY 77 58 51 SW8 30.21S IN MA CITY SKY/WX TMP DP RH WIND PRES REMARKS BOSTON MOSUNNY 79 54 41 SW13 30.17F WORCESTER SUNNY 72 52 49 W10 30.21F WESTFIELD MOSUNNY 76 55 48 SW6 30.19F PROVINCETOWN SUNNY 77 55 47 SW8 30.19F NANTUCKET SUNNY 80 60 50 SW12 30.20F $$ ANZ330-335-338-340-345-350-353-355-291700- COASTAL MARINE OBSERVATIONS STATION/POSITION TIME SKY/WX TEMP WIND PRES VSBY WAVE AIR SEA DIR/SP/G HT/PER (UTC) (F) (DEG/KT/KT) (MB) (MI) (FT/S) NY HARB ENTRANCE 1450 74 76 CALM / 2 1023.3 2/11 4S FIRE IS NOT AVBL 20S FIRE ISLAND 1450 73 75 CALM / 2 1023.5 3/ 9 GREAT SOUTH BAY 1500 74 78 250/ 8/ 8 N/A 23SW MTP 1550 72 73 250/ 6/ 8 1023.0 3/11 HUDSON CANYON NOT AVBL KINGS POINT NOT AVBL EXECUTION ROCKS 1500 76 CALM / 2 N/A CENTRAL LI SOUND NOT AVBL EASTERN LI SOUND 1500 71 71 210/ 4/ 6 N/A ROBBINS REEF NOT AVBL $$ >>>>>>>>>>>>>>>>>>>>>>>>>>>> KEY <<<<<<<<<<<<<<<<<<<<<<<<<<< > < > SKY/WX - SKY CONDITION/PRESENT WEATHER < > TMP - TEMPERATURE IN FAHRENHEIT < > DP - DEWPOINT IN FAHRENHEIT < > RH - RELATIVE HUMIDITY IN PERCENT < > WIND - DIRECTION AND SPEED IN MPH < > PRES - MEAN SEA LEVEL PRESSURE IN INCHES OF HG < > WCI - WIND CHILL INDEX < > VSB - VISIBILITY IN MILES < > HX - HEAT INDEX < > TC - TEMPERATURE IN CELSIUS < > VRB - VARIABLE WIND DIRECTION < > < >>>>>>>>>>>>>>>>>>>>>>>>>>>> KEY <<<<<<<<<<<<<<<<<<<<<<<<<<<

USA.gov is the U.S. government's official web portal to all federal, state and local government web resources and services.